Time,TemperatureF,DewpointF,PressureIn,WindDirection,WindDirectionDegrees,WindSpeedMPH,WindSpeedGustMPH,Humidity,HourlyPrecipIn,Conditions,Clouds,dailyrainin,SolarRadiationWatts/m^2,SoftwareType,DateUTC
2013-05-22 00:21:00,26.0,23.0,-100.00,East,91,0.0,6.0,90,0.00,,,0.10,0.000000,,2013-05-22 07:21:00,
2013-05-22 00:31:00,26.0,23.0,-100.00,East,91,0.0,6.0,90,0.00,,,0.10,0.000000,,2013-05-22 07:31:00,
2013-05-22 00:41:00,26.0,23.0,-100.00,East,91,0.0,6.0,90,0.00,,,0.10,0.000000,,2013-05-22 07:41:00,
2013-05-22 00:52:00,26.0,23.0,-100.00,East,91,0.0,6.0,90,0.00,,,0.10,0.000000,,2013-05-22 07:52:00,
2013-05-22 01:22:00,25.0,21.0,-100.00,East,97,4.0,19.0,83,0.00,,,0.10,0.000000,,2013-05-22 08:22:00,
2013-05-22 01:31:00,25.0,21.0,-100.00,East,97,4.0,19.0,83,0.00,,,0.10,0.000000,,2013-05-22 08:31:00,
2013-05-22 01:41:00,25.0,21.0,-100.00,East,97,4.0,19.0,83,0.00,,,0.10,0.000000,,2013-05-22 08:41:00,
2013-05-22 01:51:00,25.0,21.0,-100.00,East,97,4.0,19.0,83,0.00,,,0.10,0.000000,,2013-05-22 08:51:00,
2013-05-22 02:21:00,24.0,19.0,-100.00,WNW,286,4.0,19.0,81,0.00,,,0.10,0.000000,,2013-05-22 09:21:00,
2013-05-22 02:32:00,24.0,19.0,-100.00,WNW,286,4.0,19.0,81,0.00,,,0.10,0.000000,,2013-05-22 09:32:00,
2013-05-22 02:42:00,24.0,19.0,-100.00,WNW,286,4.0,19.0,81,0.00,,,0.10,0.000000,,2013-05-22 09:42:00,
2013-05-22 02:53:00,24.0,19.0,-100.00,WNW,286,4.0,19.0,81,0.00,,,0.10,0.000000,,2013-05-22 09:53:00,
2013-05-22 03:22:00,25.0,21.0,-100.00,NNW,342,6.0,18.0,83,0.00,,,0.10,0.000000,,2013-05-22 10:22:00,
2013-05-22 03:32:00,25.0,21.0,-100.00,NNW,342,6.0,18.0,83,0.00,,,0.10,0.000000,,2013-05-22 10:32:00,
2013-05-22 03:42:00,25.0,21.0,-100.00,NNW,342,6.0,18.0,83,0.00,,,0.10,0.000000,,2013-05-22 10:42:00,
2013-05-22 03:52:00,25.0,21.0,-100.00,NNW,342,6.0,18.0,83,0.00,,,0.10,0.000000,,2013-05-22 10:52:00,
2013-05-22 04:21:00,25.0,20.0,-100.00,North,351,7.0,19.0,81,0.00,,,0.10,0.000000,,2013-05-22 11:21:00,
2013-05-22 04:32:00,25.0,20.0,-100.00,North,351,7.0,19.0,81,0.00,,,0.10,0.000000,,2013-05-22 11:32:00,
2013-05-22 04:41:00,25.0,20.0,-100.00,North,351,7.0,19.0,81,0.00,,,0.10,0.000000,,2013-05-22 11:41:00,
2013-05-22 04:52:00,25.0,20.0,-100.00,North,351,7.0,19.0,81,0.00,,,0.10,0.000000,,2013-05-22 11:52:00,
2013-05-22 05:22:00,25.0,20.0,-100.00,West,269,2.0,20.0,81,0.00,,,0.10,0.000000,,2013-05-22 12:22:00,
2013-05-22 05:32:00,25.0,20.0,-100.00,West,269,2.0,20.0,81,0.00,,,0.10,0.000000,,2013-05-22 12:32:00,
2013-05-22 05:42:00,25.0,20.0,-100.00,West,269,2.0,20.0,81,0.00,,,0.10,0.000000,,2013-05-22 12:42:00,
2013-05-22 05:52:00,25.0,20.0,-100.00,West,269,2.0,20.0,81,0.00,,,0.10,0.000000,,2013-05-22 12:52:00,
2013-05-22 06:22:00,25.0,21.0,-100.00,North,4,0.0,16.0,85,0.00,,,0.10,0.000000,,2013-05-22 13:22:00,
2013-05-22 06:31:00,25.0,21.0,-100.00,North,4,0.0,16.0,85,0.00,,,0.10,0.000000,,2013-05-22 13:31:00,
2013-05-22 06:41:00,25.0,21.0,-100.00,North,4,0.0,16.0,85,0.00,,,0.10,0.000000,,2013-05-22 13:41:00,
2013-05-22 06:52:00,25.0,21.0,-100.00,North,4,0.0,16.0,85,0.00,,,0.10,0.000000,,2013-05-22 13:52:00,
2013-05-22 07:21:00,27.0,22.0,-100.00,ESE,110,1.0,11.0,80,0.00,,,0.10,10.000000,,2013-05-22 14:21:00,
2013-05-22 07:32:00,27.0,22.0,-100.00,ESE,110,1.0,11.0,80,0.00,,,0.10,10.000000,,2013-05-22 14:32:00,
2013-05-22 07:41:00,27.0,22.0,-100.00,ESE,110,1.0,11.0,80,0.00,,,0.10,10.000000,,2013-05-22 14:41:00,
2013-05-22 07:52:00,27.0,22.0,-100.00,ESE,110,1.0,11.0,80,0.00,,,0.10,10.000000,,2013-05-22 14:52:00,
2013-05-22 08:21:00,30.0,23.0,-100.00,West,271,0.0,12.0,76,0.00,,,-99.99,32.000000,,2013-05-22 15:21:00,
2013-05-22 08:32:00,30.0,23.0,-100.00,West,271,0.0,12.0,76,0.00,,,-99.99,32.000000,,2013-05-22 15:32:00,
2013-05-22 08:42:00,30.0,23.0,-100.00,West,271,0.0,12.0,76,0.00,,,-99.99,32.000000,,2013-05-22 15:42:00,
2013-05-22 08:53:00,30.0,23.0,-100.00,West,271,0.0,12.0,76,0.00,,,-99.99,32.000000,,2013-05-22 15:53:00,
2013-05-22 09:23:00,32.0,24.0,-100.00,North,349,0.0,7.0,73,0.00,,,0.10,35.000000,,2013-05-22 16:23:00,
2013-05-22 09:32:00,32.0,24.0,-100.00,North,349,0.0,7.0,73,0.00,,,0.10,35.000000,,2013-05-22 16:32:00,
2013-05-22 09:42:00,32.0,24.0,-100.00,North,349,0.0,7.0,73,0.00,,,0.10,35.000000,,2013-05-22 16:42:00,
2013-05-22 09:52:00,32.0,24.0,-100.00,North,349,0.0,7.0,73,0.00,,,0.10,35.000000,,2013-05-22 16:52:00,
2013-05-22 10:22:00,32.0,24.0,-100.00,South,184,0.0,11.0,73,0.00,,,0.10,35.000000,,2013-05-22 17:22:00,
2013-05-22 10:32:00,32.0,24.0,-100.00,South,184,0.0,11.0,73,0.00,,,0.10,35.000000,,2013-05-22 17:32:00,
2013-05-22 10:42:00,32.0,24.0,-100.00,South,184,0.0,11.0,73,0.00,,,0.10,35.000000,,2013-05-22 17:42:00,
2013-05-22 10:53:00,32.0,24.0,-100.00,South,184,0.0,11.0,73,0.00,,,0.10,35.000000,,2013-05-22 17:53:00,
2013-05-22 11:22:00,32.0,25.0,-100.00,SE,130,0.0,15.0,74,0.00,,,0.10,48.000000,,2013-05-22 18:22:00,
2013-05-22 11:33:00,32.0,25.0,-100.00,SE,130,0.0,15.0,74,0.00,,,0.10,48.000000,,2013-05-22 18:33:00,
2013-05-22 11:42:00,32.0,25.0,-100.00,SE,130,0.0,15.0,74,0.00,,,0.10,48.000000,,2013-05-22 18:42:00,
2013-05-22 11:52:00,32.0,25.0,-100.00,SE,130,0.0,15.0,74,0.00,,,0.10,48.000000,,2013-05-22 18:52:00,
2013-05-22 12:21:00,33.0,24.0,-100.00,WSW,252,0.0,8.0,70,0.00,,,0.09,46.000000,,2013-05-22 19:21:00,
2013-05-22 12:32:00,33.0,24.0,-100.00,WSW,252,0.0,8.0,70,0.00,,,0.09,46.000000,,2013-05-22 19:32:00,
2013-05-22 12:41:00,33.0,24.0,-100.00,WSW,252,0.0,8.0,70,0.00,,,0.09,46.000000,,2013-05-22 19:41:00,
2013-05-22 12:52:00,33.0,24.0,-100.00,WSW,252,0.0,8.0,70,0.00,,,0.09,46.000000,,2013-05-22 19:52:00,
2013-05-22 13:21:00,34.0,27.0,-100.00,NW,313,0.0,11.0,74,0.00,,,0.09,59.000000,,2013-05-22 20:21:00,
2013-05-22 13:32:00,34.0,27.0,-100.00,NW,313,0.0,11.0,74,0.00,,,0.09,59.000000,,2013-05-22 20:32:00,
2013-05-22 13:41:00,34.0,27.0,-100.00,NW,313,0.0,11.0,74,0.00,,,0.09,59.000000,,2013-05-22 20:41:00,
2013-05-22 13:51:00,34.0,27.0,-100.00,NW,313,0.0,11.0,74,0.00,,,0.09,59.000000,,2013-05-22 20:51:00,
2013-05-22 14:21:00,34.0,28.0,-100.00,ENE,77,0.0,6.0,79,0.01,,,0.09,47.000000,,2013-05-22 21:21:00,
2013-05-22 14:32:00,34.0,28.0,-100.00,ENE,77,0.0,6.0,79,0.01,,,0.09,47.000000,,2013-05-22 21:32:00,
2013-05-22 14:42:00,34.0,28.0,-100.00,ENE,77,0.0,6.0,79,0.01,,,0.09,47.000000,,2013-05-22 21:42:00,
2013-05-22 14:52:00,34.0,28.0,-100.00,ENE,77,0.0,6.0,79,0.01,,,0.09,47.000000,,2013-05-22 21:52:00,
2013-05-22 16:21:00,39.0,30.0,-100.00,WNW,284,4.0,14.0,71,-99.99,,,0.12,333.000000,,2013-05-22 23:21:00,
2013-05-22 16:32:00,39.0,30.0,-100.00,WNW,284,4.0,14.0,71,-99.99,,,0.12,333.000000,,2013-05-22 23:32:00,
2013-05-22 16:42:00,39.0,30.0,-100.00,WNW,284,4.0,14.0,71,-99.99,,,0.12,333.000000,,2013-05-22 23:42:00,
2013-05-22 16:52:00,39.0,30.0,-100.00,WNW,284,4.0,14.0,71,-99.99,,,0.12,333.000000,,2013-05-22 23:52:00,
2013-05-22 17:22:00,37.0,29.0,-100.00,West,276,2.0,11.0,74,0.07,,,0.17,315.000000,,2013-05-23 00:22:00,
2013-05-22 17:31:00,37.0,29.0,-100.00,West,276,2.0,11.0,74,0.07,,,0.17,315.000000,,2013-05-23 00:31:00,
2013-05-22 17:42:00,37.0,29.0,-100.00,West,276,2.0,11.0,74,0.07,,,0.17,315.000000,,2013-05-23 00:42:00,
2013-05-22 17:51:00,37.0,29.0,-100.00,West,276,2.0,11.0,74,0.07,,,0.17,315.000000,,2013-05-23 00:51:00,
2013-05-22 18:21:00,36.0,30.0,-100.00,ENE,59,1.0,11.0,80,0.04,,,0.20,203.000000,,2013-05-23 01:21:00,
2013-05-22 18:32:00,36.0,30.0,-100.00,ENE,59,1.0,11.0,80,0.04,,,0.20,203.000000,,2013-05-23 01:32:00,
2013-05-22 18:42:00,36.0,30.0,-100.00,ENE,59,1.0,11.0,80,0.04,,,0.20,203.000000,,2013-05-23 01:42:00,
2013-05-22 18:52:00,36.0,30.0,-100.00,ENE,59,1.0,11.0,80,0.04,,,0.20,203.000000,,2013-05-23 01:52:00,
2013-05-22 19:21:00,34.0,29.0,-100.00,West,280,4.0,13.0,83,0.04,,,0.24,212.000000,,2013-05-23 02:21:00,
2013-05-22 19:31:00,34.0,29.0,-100.00,West,280,4.0,13.0,83,0.04,,,0.24,212.000000,,2013-05-23 02:31:00,
2013-05-22 19:42:00,34.0,29.0,-100.00,West,280,4.0,13.0,83,0.04,,,0.24,212.000000,,2013-05-23 02:42:00,
2013-05-22 19:51:00,34.0,29.0,-100.00,West,280,4.0,13.0,83,0.04,,,0.24,212.000000,,2013-05-23 02:51:00,
2013-05-22 20:21:00,33.0,28.0,-100.00,West,262,0.0,14.0,83,0.01,,,0.25,69.000000,,2013-05-23 03:21:00,
2013-05-22 20:33:00,33.0,28.0,-100.00,West,262,0.0,14.0,83,0.01,,,0.25,69.000000,,2013-05-23 03:33:00,
2013-05-22 20:43:00,33.0,28.0,-100.00,West,262,0.0,14.0,83,0.01,,,0.25,69.000000,,2013-05-23 03:43:00,
2013-05-22 20:53:00,33.0,28.0,-100.00,West,262,0.0,14.0,83,0.01,,,0.25,69.000000,,2013-05-23 03:53:00,
2013-05-22 21:22:00,32.0,28.0,-100.00,SW,215,0.0,5.0,85,0.00,,,0.25,9.000000,,2013-05-23 04:22:00,
2013-05-22 21:33:00,32.0,28.0,-100.00,SW,215,0.0,5.0,85,0.00,,,0.25,9.000000,,2013-05-23 04:33:00,
2013-05-22 21:42:00,32.0,28.0,-100.00,SW,215,0.0,5.0,85,0.00,,,0.25,9.000000,,2013-05-23 04:42:00,
2013-05-22 21:52:00,32.0,28.0,-100.00,SW,215,0.0,5.0,85,0.00,,,0.25,9.000000,,2013-05-23 04:52:00,
2013-05-22 22:22:00,31.0,28.0,-100.00,West,268,0.0,8.0,88,0.00,,,0.25,0.000000,,2013-05-23 05:22:00,
2013-05-22 22:32:00,31.0,28.0,-100.00,West,268,0.0,8.0,88,0.00,,,0.25,0.000000,,2013-05-23 05:32:00,
2013-05-22 22:42:00,31.0,28.0,-100.00,West,268,0.0,8.0,88,0.00,,,0.25,0.000000,,2013-05-23 05:42:00,
2013-05-22 22:52:00,31.0,28.0,-100.00,West,268,0.0,8.0,88,0.00,,,0.25,0.000000,,2013-05-23 05:52:00,
2013-05-22 23:21:00,31.0,28.0,-100.00,ESE,123,0.0,11.0,89,0.00,,,0.25,0.000000,,2013-05-23 06:21:00,
2013-05-22 23:31:00,31.0,28.0,-100.00,ESE,123,0.0,11.0,89,0.00,,,0.25,0.000000,,2013-05-23 06:31:00,
2013-05-22 23:41:00,31.0,28.0,-100.00,ESE,123,0.0,11.0,89,0.00,,,0.25,0.000000,,2013-05-23 06:41:00,
2013-05-22 23:52:00,31.0,28.0,-100.00,ESE,123,0.0,11.0,89,0.00,,,0.25,0.000000,,2013-05-23 06:52:00,
2013-05-22 23:55:00,30.0,27.0,-100.00,SSE,152,0.0,6.0,88,0.00,,,0.25,0.000000,,2013-05-23 06:55:00,